Home > Weather > Huelva > Past weeks

Flag for Spain Past Weather in Huelva, Spain — Yesterday and Last 2 Weeks

Now
70 °F

Passing clouds.


Feels Like: 70 °F
Forecast: 57 / 72 °F
Wind: 16 mph from West

Location: Rota Airport

Current Time: May 24, 2016 at 5:49:23 PM

Latest Report: May 24, 2016 at 5:00 PM


Visibility: N/A

Pressure: 29.92 "Hg

Humidity: 73%

Dew Point: 61 °F

Location of HuelvaLocation

Past Weather in Huelva — Graph

°F

Huelva Temperature Yesterday

Maximum temperature yesterday: 77 °F (at 3:00 PM)
Minimum temperature yesterday: 59 °F (at 6:00 AM)
Average temperature yesterday: 69 °F

High & Low Weather Summary for the Past Weeks

 TemperatureHumidityPressure
High79 °F (May 17, 1:00 PM)100% (May 10, 11:00 AM)30.15 "Hg (May 10, 11:00 AM)
Low55 °F (May 11, 6:00 AM)34% (May 17, 9:00 PM)29.65 "Hg (May 10, 7:00 AM)
Average66 °F74%29.99 "Hg
* Reported May 9 4:00 PM — May 24 4:00 PM, Huelva, Weather by CustomWeather, © 2016

Note: Actual official high and low records may vary slightly from our data, if they occured in-between our weather recording intervals... More about our weather records

Advertising

Huelva Weather History for the Previous 24 Hours

Scroll right to see more
 ConditionsComfort  
Time TempWeatherWind HumidityBarometerVisibility
4:00 PM
Tue, May 24
72 °FSunny.14 mph65%29.92 "Hg10 mi
3:00 PM73 °FPassing clouds.12 mph53%29.95 "HgN/A
2:00 PM72 °FPassing clouds.10 mph69%29.95 "HgN/A
1:00 PM72 °FPassing clouds.7 mph65%29.98 "HgN/A
12:00 PM72 °FSunny.5 mph65%29.98 "Hg10 mi
11:00 AM70 °FPassing clouds.5 mph64%29.98 "HgN/A
10:00 AM68 °FPassing clouds.8 mph73%29.98 "HgN/A
9:00 AM66 °FPassing clouds.7 mph78%29.95 "HgN/A
8:00 AM64 °FClear.3 mph83%29.95 "Hg10 mi
7:00 AM64 °FClear.2 mph78%29.95 "Hg10 mi
6:00 AM64 °FClear.6 mph83%29.95 "Hg10 mi
5:00 AM64 °FClear.2 mph83%29.95 "Hg10 mi
4:00 AM66 °FPassing clouds.7 mph78%29.95 "HgN/A
3:00 AM66 °FPassing clouds.7 mph78%29.98 "HgN/A
2:00 AM66 °FPassing clouds.10 mph78%29.98 "HgN/A
1:00 AM68 °FClear.7 mph69%30.01 "Hg10 mi
12:00 AM68 °FPassing clouds.9 mph73%30.01 "HgN/A
11:00 PM
Mon, May 23
68 °FClear.No wind88%30.04 "Hg10 mi
10:00 PM68 °FSunny.2 mph94%30.01 "Hg10 mi
9:00 PM72 °FSunny.2 mph78%30.01 "Hg10 mi
8:00 PM72 °FSunny.2 mph83%30.01 "Hg10 mi
7:00 PM73 °FPassing clouds.5 mph78%30.04 "HgN/A
6:00 PM75 °FPassing clouds.6 mph69%30.04 "HgN/A
5:00 PM75 °FPassing clouds.7 mph69%30.07 "HgN/A
Weather by CustomWeather, © 2016

See weather overviewHow to use our weather pages